This is the latest recevied weather packets stored in our database for station/object K9NZF-1. If no packets are shown the sender has not sent any weather packets the latest 10 day(s).
| Time | Temp. | Humidity | Pressure | Rain* | Wind** | Luminosity | Snow |
|---|---|---|---|---|---|---|---|
| 1778171055 | 12.22° C | 55% | 1015.1 hPa | 0 mm | - | 930 W/m² | - |
| 1778170993 | 12.22° C | 56% | 1015 hPa | 0 mm | - | 928 W/m² | - |
| 1778170935 | 12.22° C | 55% | 1015 hPa | 0 mm | - | 928 W/m² | - |
| 1778170875 | 12.22° C | 51% | 1015 hPa | 0 mm | - | 926 W/m² | - |
| 1778170815 | 12.22° C | 53% | 1015.1 hPa | 0 mm | - | 925 W/m² | - |
| 1778170753 | 12.22° C | 52% | 1015.1 hPa | 0 mm | - | 923 W/m² | - |
| 1778170695 | 12.22° C | 54% | 1015.1 hPa | 0 mm | - | 918 W/m² | - |
| 1778170635 | 12.22° C | 53% | 1015 hPa | 0 mm | - | 916 W/m² | - |
| 1778170574 | 12.22° C | 56% | 1015.1 hPa | 0 mm | - | 919 W/m² | - |
| 1778170512 | 11.67° C | 54% | 1015.1 hPa | 0 mm | - | 919 W/m² | - |
| 1778170453 | 11.67° C | 53% | 1015.1 hPa | 0 mm | - | 918 W/m² | - |
| 1778170393 | 11.67° C | 54% | 1015 hPa | 0 mm | - | 919 W/m² | - |
| 1778170334 | 11.67° C | 52% | 1015.1 hPa | 0 mm | - | 914 W/m² | - |
| 1778170276 | 11.67° C | 52% | 1015.1 hPa | 0 mm | - | 916 W/m² | - |
| 1778170206 | 11.67° C | 53% | 1015.1 hPa | 0 mm | - | 912 W/m² | - |
| 1778170147 | 11.67° C | 56% | 1015.1 hPa | 0 mm | - | 907 W/m² | - |
| 1778170085 | 11.67° C | 57% | 1015 hPa | 0 mm | - | 905 W/m² | - |
| 1778170025 | 11.67° C | 55% | 1015.1 hPa | 0 mm | - | 907 W/m² | - |
| 1778169961 | 11.67° C | 55% | 1015.1 hPa | 0 mm | - | 904 W/m² | - |
| 1778169902 | 11.67° C | 54% | 1015.1 hPa | 0 mm | - | 902 W/m² | - |
| 1778169840 | 11.67° C | 53% | 1015.1 hPa | 0 mm | - | 902 W/m² | - |
| 1778169782 | 11.67° C | 54% | 1015 hPa | 0 mm | - | 902 W/m² | - |
| 1778169714 | 11.67° C | 55% | 1015.1 hPa | 0 mm | - | 900 W/m² | - |
| 1778169654 | 11.67° C | 53% | 1015.1 hPa | 0 mm | - | 900 W/m² | - |
| 1778169593 | 11.67° C | 52% | 1015.1 hPa | 0 mm | - | 902 W/m² | - |
* Rain latest hour (hover to see other rain measurements)
** Current wind speed in m/s (hover to see current wind gust speed)